EHI
0 0 0 0 0 0 0 0 0 0 0 0 0 0 0 0 0 0 0 0 0 0 0 0 0 0 0 0 0 0 0 0 0 0 0 0 0 0 0 0 0 0 0
0 0 0 0 0 0 0 0 0 0 0 0 0 0 0 0 0 0 0 0 0 0 0 0 0 0 0 0 0 0 0 0 0 0 0 0 0 0 0 0 0 0 0
0 0 0 0 0 0 0 0 0 0 0 0 0 0 0 0 0 0 0 0 0 0 0 0 0 0 0 0 0 0 0 0 0 0 0 0 0 0 0 0 0 0 0
0 0 0 0 0 0 0 0 0 0 0 0 0 0 0 0 0 0 0 0 0 0 0 0 0 0 0 0 0 0 0 0 0 0 0 0 0 0 0 0 0 0 0
0 0 0 0 0 0 0 0 0 0 0 0 0 0 0 0 0 0 0 0 0 0 0 0 0 0 0 0 0 0 0 0 0 0 0 0 0 0 0 0 0 0 0
0 0 0 0 0 0 0 0 0 0 0 0 0 0 0 0 0 0 0 0 0 0 0 0 0 0 0 0 0 0 0 0 0 0 0 0 0 0 0 0 0 0 0
0 0 0 0 0 0 0 0 0 0 0 0 0 0 0 0 0 0 0 0 0 0 0 0 0 0 0 0 0 0 0 0 0 0 0 0 0 0 0 0 0 0 0
0 0 0 0 0 0 0 0 0 0 0 0 0 0 0 0 0 0 0 0 0 0 0 0 0 0 0 0 0 0 0 0 0 0 0 0 0 0 0 0 0 0 0
0 0 0 0 0 0 0 0 0 0 0 0 0 0 0 0 0 0 0 0 0 0 0 0 0 0 0 0 0 0 0 0 0 0 0 0 0 0 0 0 0 0 0
0 0 0 0 0 0 0 0 0 0 0 0 0 0 0 0 0 0 0 0 0 0 0 0 0 0 0 0 0 0 0 0 0 0 0 0 0 0 0 0 0 0 0
0 0 0 0 0 0 0 0 0 0 0 0 0 0 0 0 0 0 0 0 0 0 0 0 0 0 0 0 0 0 0 0 0 0 0 0 0 0 0 0 0 0 0
0 0 0 0 0 0 0 0 0 0 0 0 0 0 0 0 0 0 0 0 0 0 0 0 0 0 0 0 0 0 0 0 0 0 0 0 0 0 0 0 0 0 0
0 0 0 0 0 0 0 0 0 0 0 0 0 0 0 0 0 0 0 0 0 0 0 0 0 0 0 0 0 0 0 0 0 0 0 0 0 0 0 0 0 0 0
0 0 0 0 0 0 0 0 0 0 0 0 0 0 0 0 0 0 0 0 0 0 0 0 0 0 0 0 0 0 0 0 0 0 0 0 0 0 0 0 0 0 0
0 0 0 0 0 0 0 0 0 0 0 0 0 0 0 0 0 0 0 0 0 0 0 0 0 0 0 0 0 0 0 0 0 0 0 0 0 0 0 0 0 0 0
0 0 0 0 0 0 0 0 0 0 0 0 0 0 0 0 0 0 0 0 0 0 0 0 0 0 0 0 0 0 0 0 0 0 0 0 0 0 0 0 0 0 0
0 0 0 0 0 0 0 0 0 0 0 0 0 0 0 0 0 0 0 0 0 0 0 0 0 0 0 0 0 0 0 0 0 0 0 0 0 0 0 0 0 0 0
0 0 0 0 0 0 0 0 0 0 0 0 0 0 0 0 0 0 0 0 0 0 0 0 0 0 0 0 0 0 0 0 0 0 0 0 0 0 0 0 0 0 0
0 0 0 0 0 0 0 0 0 0 0 0 0 0 0 0 0 0 0 0 0 0 0 0 0 0 0 0 0 0 0 0 0 0 0 0 0 0 0 0 0 0 0
0 0 0 0 0 0 0 0 0 0 0 0 0 0 0 0 0 0 0 0 0 0 0 0 0 0 0 0 0 0 0 0 0 0 0 0 0 0 0 0 0 0 0
0 0 0 0 0 0 0 0 0 0 0 0 0 0 0 0 0 0 0 0 0 0 0 0 0 0 0 0 0 0 0 0 0 0 0 0 0 0 0 0 0 0 0
0 0 0 0 0 0 0 0 0 0 0 0 0 0 0 0 0 0 0 0 0 0 0 0 0 0 0 0 0 0 0 0 0 0 0 0 0 0 0 0 0 0 0
0 0 0 0 0 0 0 0 0 0 0 0 0 0 0 0 0 0 0 0 0 0 0 0 0 0 0 0 0 0 0 0 0 0 0 0 0 0 0 0 0 0 0
0 0 0 0 0 0 0 0 0 0 0 0 0 0 0 0 0 0 0 0 0 0 0 0 0 0 0 0 0 0 0 0 0 0 0 0 0 0 0 0 0 0 0
0 0 0 0 0 0 0 0 0 0 0 0 0 0 0 0 0 0 0 0 0 0 0 0 0 0 0 0 0 0 0 0 0 0 0 0 0 0 0 0 0 0 0
0 0 0 0 0 0 0 0 0 0 0 0 0 0 0 0 0 0 0 0 0 0 0 0 0 0 0 0 0 0 0 0 0 0 0 0 0 0 0 0 0 0 0
Wind_Speed
5 5 5 5 5 6 6 6 6 6 6 6 6 6 7 7 7 7 7 7 8 7 7 8 8 7 6 5 5 5 6 5 6 4 3 4 5 4 3 3 4 4 4
5 5 5 5 5 6 6 6 7 7 6 7 7 7 7 7 7 8 8 8 9 9 9 9 9 7 8 7 6 7 6 6 6 6 5 4 6 5 4 4 3 3 4
5 5 5 5 5 5 6 6 7 7 7 7 7 7 8 8 8 8 9 9 9 9 9 10 9 9 10 8 8 7 6 6 6 6 5 4 4 4 4 4 4 4 4
5 4 4 5 5 6 6 6 6 7 7 7 8 8 8 8 9 9 9 9 9 9 9 10 10 10 11 10 8 8 7 7 7 6 5 5 4 4 4 4 4 4 4
4 4 4 5 5 6 6 6 6 7 7 7 8 8 8 8 8 9 9 9 9 10 9 10 10 11 12 10 8 8 8 7 7 6 6 5 5 5 5 4 5 4 4
4 5 5 5 5 6 6 6 6 7 7 7 8 8 9 8 9 11 11 10 10 10 10 10 10 11 12 13 13 13 11 10 9 8 7 8 8 7 5 5 5 5 4
5 5 5 5 6 6 6 6 7 7 7 8 8 8 9 10 11 12 12 11 10 10 10 10 8 8 11 10 11 13 13 14 13 10 10 10 9 8 7 7 7 6 5
5 5 5 5 6 7 7 7 7 7 7 8 8 9 9 10 11 11 11 11 10 11 11 11 10 10 10 10 10 10 11 11 11 10 10 9 8 7 7 7 7 5 4
5 6 6 6 7 7 7 7 7 7 7 8 8 8 9 10 10 11 11 8 8 10 10 10 11 11 12 12 11 10 10 9 9 10 10 9 9 9 8 5 5 5 4
6 7 7 6 7 7 8 8 7 7 8 8 8 8 9 10 10 10 11 7 8 8 8 9 12 12 12 13 11 10 11 9 8 7 8 8 8 9 10 9 7 6 4
7 7 6 7 7 8 8 7 7 7 7 8 8 8 8 10 10 11 11 7 7 7 7 7 7 10 13 14 13 10 10 8 7 8 7 6 6 6 6 7 6 6 6
7 7 6 6 6 6 7 6 6 6 7 7 7 7 6 6 8 9 11 11 10 8 7 6 6 9 10 12 10 10 10 8 6 6 6 6 6 5 5 6 6 5 5
7 7 7 6 6 6 6 6 5 5 5 5 5 5 5 5 5 8 10 10 10 7 6 7 7 7 7 7 9 10 8 6 6 6 7 6 5 5 4 4 4 4 3
7 7 7 6 6 6 5 4 4 5 5 5 5 5 5 5 5 4 5 5 6 5 4 4 5 5 5 5 5 6 6 5 6 6 5 4 4 4 5 4 4 4 3
7 7 7 6 6 5 5 4 5 5 5 6 5 5 5 5 6 8 6 5 4 4 4 3 3 3 3 3 3 4 4 4 5 4 4 4 4 4 4 4 4 4 4
7 7 6 5 5 5 5 5 6 7 9 10 10 9 7 8 9 9 9 8 7 5 4 3 3 3 3 3 3 3 3 4 4 4 4 4 4 4 4 3 4 4 4
7 7 6 5 5 5 5 5 5 6 7 8 9 10 9 9 8 8 7 5 4 3 3 3 3 3 3 3 3 3 3 3 3 4 4 4 4 4 4 4 4 4 4
7 7 6 5 5 6 5 5 4 5 6 5 6 8 8 8 7 6 4 2 1 1 2 2 2 2 2 2 2 2 2 2 2 3 3 4 4 4 4 4 4 4 4
6 5 5 5 5 5 5 5 4 5 5 4 4 5 7 7 5 4 3 1 1 1 2 1 1 1 1 2 2 2 2 2 3 3 3 3 3 4 4 4 4 5 4
5 8 7 5 5 5 5 5 4 4 4 4 4 4 5 5 3 4 3 3 2 2 2 2 2 1 1 1 1 1 2 2 3 3 3 3 3 3 4 4 4 4 4
5 6 7 5 4 5 5 5 5 4 4 4 4 5 7 4 3 4 3 3 3 3 2 2 2 2 2 1 1 1 2 2 2 2 2 2 3 3 3 3 4 4 4
4 4 4 4 4 4 5 4 4 4 4 5 4 5 7 4 4 4 4 4 3 3 3 3 2 2 2 2 1 1 2 2 2 2 2 3 3 3 3 4 4 4 4
4 4 4 4 4 6 5 4 4 4 4 4 4 4 4 4 4 4 4 4 4 3 3 3 3 3 3 2 2 1 2 2 2 2 3 3 3 3 3 4 5 5 5
4 4 4 4 4 4 4 4 4 4 5 5 4 4 4 4 4 4 4 4 4 4 3 3 3 3 4 3 2 2 2 2 2 2 4 4 3 3 3 4 4 5 5
4 4 4 4 4 4 4 4 4 4 4 4 4 4 4 4 4 4 4 4 4 4 5 4 3 4 4 4 3 2 3 4 3 2 2 3 4 4 4 4 4 4 4
4 4 3 3 3 3 4 4 4 4 4 4 4 4 4 4 4 4 4 4 4 4 4 4 4 5 5 4 4 4 4 4 4 3 2 2 2 3 3 3 4 4 4
Wind_Direction
281 276 268 264 258 252 250 254 256 257 255 256 258 259 257 255 254 247 239 236 233 236 232 228 230 232 230 225 227 231 234 237 237 235 231 223 220 220 220 230 232 227 219
282 278 275 274 268 262 256 256 259 260 258 256 257 257 257 255 252 250 245 239 233 234 231 229 230 229 228 227 224 228 228 232 232 229 225 222 226 222 223 228 239 235 230
282 276 277 280 274 269 268 264 260 261 260 258 257 255 255 254 251 251 249 246 238 236 231 229 227 226 228 225 225 229 229 230 228 220 224 225 227 218 224 234 239 244 238
281 275 277 281 277 274 274 270 263 259 258 257 257 256 255 254 251 251 252 251 247 242 236 232 229 227 228 224 224 225 227 227 220 215 216 217 221 219 221 226 234 240 240
278 276 278 282 280 276 276 274 268 262 261 260 259 258 256 254 249 249 253 254 252 247 239 235 233 231 232 227 223 221 221 224 216 213 215 218 216 208 217 223 232 238 240
274 278 281 280 279 274 276 275 273 267 263 262 258 257 256 254 254 257 258 254 255 247 239 237 234 230 230 228 229 226 224 223 217 214 219 219 222 221 220 218 224 230 237
277 278 280 281 280 280 278 275 273 271 265 261 259 257 257 257 257 258 261 260 257 249 240 236 233 230 227 225 226 228 230 231 228 223 221 224 222 217 216 220 224 230 240
276 278 278 279 281 283 278 273 273 272 267 261 259 258 260 259 260 261 264 258 258 253 243 237 235 233 226 224 225 227 230 230 228 228 229 230 229 221 218 225 226 237 249
276 279 281 282 281 280 277 274 273 271 269 265 262 259 260 262 260 264 265 258 255 255 248 240 235 234 227 224 226 227 230 231 230 228 233 233 228 224 216 213 214 220 238
286 285 283 280 276 275 275 274 272 269 267 268 264 261 259 261 261 262 262 255 256 256 250 241 235 234 227 221 222 221 225 227 220 215 219 221 222 219 216 217 215 219 227
294 288 285 282 279 276 275 273 271 270 269 266 267 265 261 260 261 259 261 256 253 254 253 247 238 230 227 225 226 226 227 225 217 209 211 211 211 211 216 220 221 223 220
302 295 290 288 286 282 279 276 272 269 268 266 266 270 267 264 262 263 265 265 265 257 257 255 250 234 226 223 225 227 221 217 213 204 203 205 205 208 210 212 216 228 233
307 302 299 297 293 288 282 280 278 271 268 269 265 268 272 272 271 271 270 271 269 266 262 264 258 238 225 221 218 214 212 212 210 207 207 209 209 205 199 200 208 216 231
311 309 308 305 301 299 291 282 277 275 274 278 274 270 275 276 274 272 268 267 263 265 268 259 252 233 229 224 215 214 218 214 212 211 206 202 198 198 199 198 203 200 216
316 314 314 310 305 302 297 289 285 280 278 281 281 277 273 273 278 289 286 270 262 256 264 254 232 218 218 222 220 215 213 205 206 205 201 197 200 202 201 198 199 203 218
318 318 316 312 310 307 305 304 298 292 299 295 292 289 285 285 292 291 291 289 283 263 248 230 226 226 225 219 214 215 213 209 205 200 202 202 203 203 203 201 201 208 217
315 314 313 315 314 311 308 307 308 313 312 305 304 303 300 302 300 298 299 300 290 263 235 230 226 227 224 220 218 217 221 217 204 201 204 204 202 203 202 202 204 208 215
313 311 314 312 312 310 309 308 305 308 311 310 312 313 312 311 306 306 317 326 294 279 265 247 235 231 227 224 220 220 214 205 202 204 201 201 200 199 201 206 209 214 215
314 314 315 313 313 311 312 312 309 307 306 312 318 325 333 333 336 339 343 325 312 314 317 298 275 257 243 238 228 218 214 211 206 204 205 206 205 202 204 206 211 214 221
310 317 321 317 316 317 319 321 320 318 319 326 332 337 341 346 356 353 349 347 340 335 332 321 313 303 276 249 238 225 216 214 208 204 205 205 205 205 207 210 213 217 223
316 319 324 323 322 322 323 323 323 323 327 332 335 339 344 346 346 347 348 347 343 337 333 328 326 323 307 277 247 231 231 228 221 211 210 209 205 207 212 214 217 219 220
319 321 323 323 324 325 326 326 326 330 336 338 338 338 346 351 348 347 345 344 342 340 339 336 332 329 322 310 280 251 238 236 229 218 218 217 214 216 214 214 217 217 215
321 322 322 322 322 325 329 330 334 337 338 337 339 343 347 348 345 340 338 339 341 342 342 338 331 330 329 322 314 283 253 247 244 229 220 223 223 221 218 220 221 222 223
321 321 323 324 325 328 331 335 336 337 337 338 340 342 343 342 340 339 338 339 340 340 340 337 335 331 332 330 325 318 306 291 268 240 227 223 227 229 224 225 227 226 225
319 320 321 323 327 329 330 331 333 334 336 337 336 336 337 337 337 336 337 339 339 338 339 336 334 337 338 333 327 325 319 309 296 274 235 225 226 229 229 229 230 228 226
324 324 323 324 324 325 326 327 328 330 329 330 330 331 331 332 332 334 335 336 336 333 333 334 338 336 333 330 325 315 307 303 303 297 276 242 236 234 231 233 231 229 223